EA3KZ-1 Weather Reports


Display with metric or nautical units.
time (UTC)temp
F
wind
direction
speed
MPH
gust
MPH
rain 1hr
in
rain 24hr
in
rain mn
in
humidity
%
barometer
mb
20260831151534 83 107 5.0 13.0 0.00 0.00 0.00 64 1015.6
20260831150532 84 101 4.0 11.0 0.00 0.00 0.00 64 1015.5
20260831145529 84 96 5.0 11.0 0.00 0.00 0.00 63 1015.5
20260831144527 84 138 5.0 13.0 0.00 0.00 0.00 63 1015.5
20260831143524 86 227 3.0 11.0 0.00 0.00 0.00 61 1015.4
20260831142521 86 144 3.0 9.0 0.00 0.00 0.00 61 1015.6
20260831141519 85 116 4.0 9.0 0.00 0.00 0.00 61 1015.5
20260831140516 86 161 3.0 8.0 0.00 0.00 0.00 60 1015.5
20260831135614 86 135 4.0 11.0 0.00 0.00 0.00 60 1015.4
20260831134611 85 171 4.0 11.0 0.00 0.00 0.00 61 1015.4
20260831133609 85 95 3.0 8.0 0.00 0.00 0.00 60 1015.4
20260831132606 84 113 3.0 7.0 0.00 0.00 0.00 61 1015.5
20260831131604 83 106 5.0 15.0 0.00 0.00 0.00 64 1015.5
20260831130601 83 339 7.0 11.0 0.00 0.00 0.00 63 1015.6
20260831125558 83 61 4.0 11.0 0.00 0.00 0.00 63 1015.5
20260831124556 83 22 7.0 14.0 0.00 0.00 0.00 62 1015.7
20260831123553 83 358 3.0 7.0 0.00 0.00 0.00 61 1015.7
20260831122551 84 91 4.0 9.0 0.00 0.00 0.00 60 1015.8
20260831121548 86 76 3.0 8.0 0.00 0.00 0.00 58 1015.8
20260831120545 85 163 3.0 6.0 0.00 0.00 0.00 59 1015.8
20260831115543 85 107 3.0 7.0 0.00 0.00 0.00 57 1015.9
20260831114540 85 105 2.0 9.0 0.00 0.00 0.00 55 1015.9
20260831113538 85 84 2.0 6.0 0.00 0.00 0.00 56 1015.9
20260831112535 85 107 4.0 7.0 0.00 0.00 0.00 55 1016.0
20260831111532 84 90 3.0 4.0 0.00 0.00 0.00 56 1016.1
20260831110530 84 102 2.0 4.0 0.00 0.00 0.00 56 1016.1
20260831105527 83 104 3.0 9.0 0.00 0.00 0.00 56 1016.2
20260831104525 83 134 2.0 6.0 0.00 0.00 0.00 60 1016.2
20260831103522 82 137 3.0 8.0 0.00 0.00 0.00 61 1016.2
20260831102519 80 293 3.0 4.0 0.00 0.00 0.00 63 1016.2
20260831101517 82 90 3.0 6.0 0.00 0.00 0.00 60 1016.3
20260831100614 82 128 0.0 2.0 0.00 0.00 0.00 61 1016.3
20260831095612 81 135 1.0 4.0 0.00 0.00 0.00 64 1016.2
20260831094609 80 116 2.0 6.0 0.00 0.00 0.00 65 1016.4
20260831093607 80 216 1.0 2.0 0.00 0.00 0.00 65 1016.4
20260831092604 79 125 3.0 7.0 0.00 0.00 0.00 67 1016.4
20260831091602 78 209 3.0 7.0 0.00 0.00 0.00 71 1016.3
20260831090559 78 146 1.0 4.0 0.00 0.00 0.00 70 1016.5
20260831085556 76 193 2.0 4.0 0.00 0.00 0.00 74 1016.3
20260831084554 76 141 4.0 7.0 0.00 0.00 0.00 75 1016.3
20260831083551 75 153 5.0 9.0 0.00 0.00 0.00 77 1016.2
20260831082548 77 122 2.0 6.0 0.00 0.00 0.00 74 1016.1
20260831081546 77 114 1.0 4.0 0.00 0.00 0.00 75 1016.0
20260831080543 77 93 1.0 4.0 0.00 0.00 0.00 73 1016.0
20260831075540 76 110 1.0 4.0 0.00 0.00 0.00 72 1015.9
20260831074538 75 212 2.0 4.0 0.00 0.00 0.00 72 1015.7
20260831073535 75 98 1.0 4.0 0.00 0.00 0.00 72 1015.6
20260831072533 74 140 1.0 2.0 0.00 0.00 0.00 71 1015.5
20260831071530 74 97 1.0 2.0 0.00 0.00 0.00 70 1015.5
20260831070527 73 90 1.0 2.0 0.00 0.00 0.00 70 1015.4
20260831065525 74 94 1.0 2.0 0.00 0.00 0.00 69 1015.3
20260831064522 73 113 0.0 2.0 0.00 0.00 0.00 69 1015.3
20260831063520 74 158 0.0 2.0 0.00 0.00 0.00 68 1015.0
20260831062517 73 248 0.0 2.0 0.00 0.00 0.00 63 1014.8
20260831061614 73 248 0.0 2.0 0.00 0.00 0.00 61 1014.8
20260831060612 71 248 0.0 2.0 0.00 0.00 0.00 59 1014.7
20260831055610 71 0.0 2.0 0.00 0.00 0.00 57 1014.5
20260831054607 70 264 1.0 2.0 0.00 0.00 0.00 57 1014.4
20260831053604 70 236 0.0 2.0 0.00 0.00 0.00 56 1014.4
20260831052602 69 258 1.0 2.0 0.00 0.00 0.00 57 1014.1
20260831051559 69 268 2.0 2.0 0.00 0.00 0.00 55 1014.1
20260831050556 70 270 0.0 2.0 0.00 0.00 0.00 54 1014.2
20260831045554 70 248 1.0 2.0 0.00 0.00 0.00 54 1014.1
20260831044551 69 259 2.0 4.0 0.00 0.00 0.00 54 1014.2
20260831043549 69 259 0.0 2.0 0.00 0.00 0.00 54 1014.1
20260831042546 70 257 1.0 2.0 0.00 0.00 0.00 54 1014.2
20260831041543 70 236 1.0 2.0 0.00 0.00 0.00 53 1014.2
20260831040541 70 0.0 0.0 0.00 0.00 0.00 53 1014.0
20260831035538 70 248 0.0 2.0 0.00 0.00 0.00 53 1014.0
20260831034535 70 260 2.0 4.0 0.00 0.00 0.00 53 1014.1
20260831033533 70 265 2.0 4.0 0.00 0.00 0.00 53 1014.0
20260831032530 70 0.0 0.0 0.00 0.00 0.00 53 1014.2
20260831031528 70 0.0 0.0 0.00 0.00 0.00 52 1014.1
20260831030525 70 0.0 2.0 0.00 0.00 0.00 52 1014.1
20260831025523 70 261 2.0 4.0 0.00 0.00 0.00 52 1014.0
20260831024520 70 252 2.0 2.0 0.00 0.00 0.00 52 1014.0
20260831023518 70 231 1.0 2.0 0.00 0.00 0.00 53 1014.1
20260831022515 70 248 0.0 2.0 0.00 0.00 0.00 53 1014.0
20260831021612 70 255 2.0 4.0 0.00 0.00 0.00 53 1013.9
20260831020610 70 252 1.0 2.0 0.00 0.00 0.00 53 1014.0
20260831015607 70 251 2.0 4.0 0.00 0.00 0.00 53 1014.1
20260831014605 70 216 1.0 2.0 0.00 0.00 0.00 54 1014.1
20260831013602 71 45 1.0 4.0 0.00 0.00 0.00 50 1013.9
20260831012600 71 0.0 0.0 0.00 0.00 0.00 52 1013.8
20260831011557 71 289 1.0 4.0 0.00 0.00 0.00 52 1013.8
20260831010554 71 270 0.0 2.0 0.00 0.00 0.00 53 1013.8
20260831005552 71 257 1.0 2.0 0.00 0.00 0.00 53 1013.9
20260831004549 71 244 2.0 2.0 0.00 0.00 0.00 53 1013.9
20260831003547 71 242 0.0 2.0 0.00 0.00 0.00 52 1013.8
20260831002544 71 167 0.0 2.0 0.00 0.00 0.00 53 1013.8
20260831001541 71 240 1.0 2.0 0.00 0.00 0.00 57 1013.7
20260831000539 71 0.0 0.0 0.00 0.00 0.00 59 1013.7
20260830235536 71 281 1.0 2.0 0.00 0.00 0.00 58 1013.8
20260830234534 71 135 1.0 2.0 0.00 0.00 0.00 58 1013.8
20260830233531 71 0.0 0.0 0.00 0.00 0.00 62 1014.1
20260830232528 72 237 2.0 4.0 0.00 0.00 0.00 61 1014.1
20260830231526 71 240 1.0 2.0 0.00 0.00 0.00 63 1014.0
20260830230523 71 236 2.0 4.0 0.00 0.00 0.00 67 1014.0
20260830225521 71 233 2.0 4.0 0.00 0.00 0.00 64 1014.1
20260830224518 71 205 2.0 4.0 0.00 0.00 0.00 67 1014.1
20260830223515 72 183 2.0 4.0 0.00 0.00 0.00 69 1014.1
20260830222613 72 177 2.0 4.0 0.00 0.00 0.00 71 1014.1
20260830221610 72 192 3.0 4.0 0.00 0.00 0.00 68 1014.0
20260830220608 73 198 2.0 4.0 0.00 0.00 0.00 66 1013.8
20260830215605 73 207 2.0 4.0 0.00 0.00 0.00 64 1013.9
20260830214603 73 231 3.0 4.0 0.00 0.00 0.00 66 1013.9
20260830213600 74 213 2.0 4.0 0.00 0.00 0.00 65 1013.8
20260830212557 73 224 3.0 6.0 0.00 0.00 0.00 62 1013.7
20260830211555 73 204 2.0 4.0 0.00 0.00 0.00 58 1013.7
20260830210552 74 220 3.0 4.0 0.00 0.00 0.00 58 1013.8
20260830205550 74 202 3.0 4.0 0.00 0.00 0.00 59 1013.8
20260830204547 74 239 3.0 6.0 0.00 0.00 0.00 58 1013.9
20260830203545 75 193 1.0 4.0 0.00 0.00 0.00 57 1013.7
20260830202542 75 198 3.0 7.0 0.00 0.00 0.00 55 1013.7
20260830201539 76 186 2.0 4.0 0.00 0.00 0.00 52 1013.6
20260830200537 76 206 2.0 4.0 0.00 0.00 0.00 50 1013.5
20260830195534 77 223 1.0 2.0 0.00 0.00 0.00 47 1013.6
20260830194531 77 217 1.0 4.0 0.00 0.00 0.00 47 1013.4
20260830193529 78 203 2.0 4.0 0.00 0.00 0.00 46 1013.5
20260830192526 78 206 2.0 4.0 0.00 0.00 0.00 45 1013.3
20260830191524 78 181 3.0 6.0 0.00 0.00 0.00 44 1013.1
20260830190521 79 187 3.0 4.0 0.00 0.00 0.00 43 1013.0
20260830185519 79 138 3.0 7.0 0.00 0.00 0.00 43 1013.0
20260830184516 80 181 3.0 7.0 0.00 0.00 0.00 42 1012.8
20260830183614 80 113 4.0 8.0 0.00 0.00 0.00 40 1012.8
20260830182611 81 138 5.0 8.0 0.00 0.00 0.00 39 1012.7
20260830181609 81 142 3.0 7.0 0.00 0.00 0.00 39 1012.6
20260830180606 81 137 6.0 11.0 0.00 0.00 0.00 38 1012.6
20260830175603 82 156 6.0 14.0 0.00 0.00 0.00 39 1012.6
20260830174601 82 141 5.0 11.0 0.00 0.00 0.00 39 1012.6
20260830173558 83 141 6.0 11.0 0.00 0.00 0.00 40 1012.7
20260830172556 83 155 6.0 11.0 0.00 0.00 0.00 40 1012.5
20260830171553 84 130 4.0 9.0 0.00 0.00 0.00 41 1012.4
20260830170550 84 119 6.0 11.0 0.00 0.00 0.00 41 1012.5
20260830165548 84 115 5.0 13.0 0.00 0.00 0.00 41 1012.5
20260830164545 84 123 8.0 13.0 0.00 0.00 0.00 42 1012.6
20260830163542 85 122 6.0 13.0 0.00 0.00 0.00 41 1012.5
20260830162540 85 150 7.0 11.0 0.00 0.00 0.00 40 1012.5
20260830161537 86 127 8.0 14.0 0.00 0.00 0.00 39 1012.4
20260830160535 86 150 5.0 11.0 0.00 0.00 0.00 38 1012.4
20260830155532 86 116 7.0 14.0 0.00 0.00 0.00 39 1012.3
20260830154530 87 172 5.0 13.0 0.00 0.00 0.00 38 1012.3
20260830153527 87 122 6.0 16.0 0.00 0.00 0.00 38 1012.4
20260830152524 88 112 5.0 13.0 0.00 0.00 0.00 37 1012.5